Home   Weather   Germany   Bremen   Past weeks
Flag for Germany

Past Weather in Bremen, Bremen, Germany — July 2022

Currently: 36 °F. Drizzle. Fog. (Weather station: Bremen Airport, Germany). See more current weather

July 2022 Weather in Bremen — Graph

°F

High & Low Weather Summary for July 2022

 TemperatureHumidityPressure
High99 °F (Jul 20, 12:50 pm)100% (Jul 4, 12:50 am)30.39 "Hg (Jul 4, 12:50 am)
Low46 °F (Jul 17, 4:20 am)19% (Jul 19, 4:20 pm)29.71 "Hg (Jul 25, 11:20 am)
Average66 °F67%30.10 "Hg
* Reported Jul 1 12:20 am — Jul 31 11:50 pm, Bremen. Weather by CustomWeather, © 2022

Note: Actual official high and low records may vary slightly from our data, if they occured in-between our weather recording intervals... More about our weather records

Bremen Weather History for July 1, 2022

Scroll right to see more
 ConditionsComfort  
Time TempWeatherWind HumidityBarometerVisibility
12:20 am
Fri, Jul 1
64 °FLots of rain. Passing clouds.13 mph94%29.83 "Hg4 mi
12:50 am64 °FThundershowers. Passing clouds.5 mph94%29.83 "HgN/A
1:20 am66 °FSprinkles. Passing clouds.1 mph88%29.83 "HgN/A
2:50 am63 °FPassing clouds.13 mph94%29.86 "HgN/A
3:20 am63 °FPartly cloudy.12 mph94%29.86 "HgN/A
3:50 am63 °FSprinkles. Mostly cloudy.13 mph94%29.89 "HgN/A
4:20 am61 °FLight rain. Low clouds.15 mph94%29.89 "HgN/A
4:50 am59 °FLight rain. Fog.13 mph94%29.92 "Hg3 mi
5:20 am59 °FCloudy.10 mph94%29.92 "HgN/A
5:50 am59 °FCloudy.13 mph94%29.92 "HgN/A
6:20 am59 °FOvercast.12 mph94%29.95 "HgN/A
6:50 am59 °FLight rain. Mostly cloudy.9 mph88%29.95 "HgN/A
7:20 am59 °FBroken clouds.9 mph94%29.95 "HgN/A
7:50 am59 °FPartly sunny.8 mph94%29.98 "HgN/A
8:20 am59 °FPartly sunny.12 mph88%29.98 "HgN/A
8:50 am59 °FMore clouds than sun.12 mph88%29.98 "HgN/A
9:20 am59 °FPartly sunny.8 mph88%29.98 "HgN/A
10:20 am59 °FLight rain. Partly sunny.9 mph88%30.01 "HgN/A
10:50 am59 °FLight rain. Broken clouds.9 mph94%30.01 "Hg5 mi
11:20 am59 °FPartly sunny.9 mph94%30.01 "HgN/A
11:50 am61 °FPartly sunny.9 mph83%30.01 "HgN/A
12:20 pm61 °FPartly sunny.9 mph83%30.01 "HgN/A
12:50 pm63 °FScattered clouds.9 mph77%30.04 "HgN/A
1:20 pm64 °FPartly sunny.10 mph73%30.01 "HgN/A
1:50 pm64 °FScattered clouds.13 mph68%30.01 "HgN/A
2:20 pm66 °FPartly sunny.12 mph64%30.04 "HgN/A
2:50 pm66 °FScattered clouds.13 mph60%30.04 "HgN/A
3:20 pm66 °FPassing clouds.10 mph60%30.04 "HgN/A
3:50 pm66 °FScattered clouds.14 mph56%30.04 "HgN/A
4:20 pm68 °FPassing clouds.12 mph56%30.04 "HgN/A
4:50 pm68 °FPassing clouds.12 mph56%30.04 "HgN/A
5:20 pm70 °FPassing clouds.12 mph53%30.04 "HgN/A
5:50 pm70 °FPassing clouds.7 mph50%30.04 "HgN/A
6:20 pm70 °FPartly sunny.12 mph53%30.04 "HgN/A
6:50 pm68 °FPartly sunny.12 mph53%30.04 "HgN/A
7:20 pm68 °FPartly sunny.8 mph56%30.07 "HgN/A
7:50 pm68 °FPassing clouds.10 mph56%30.07 "HgN/A
8:20 pm68 °FSunny.8 mph56%30.07 "Hg10 mi
8:50 pm66 °FSunny.6 mph60%30.07 "Hg10 mi
9:20 pm64 °FSunny.5 mph64%30.09 "Hg10 mi
9:50 pm63 °FSunny.5 mph73%30.09 "Hg10 mi
10:20 pm61 °FClear.7 mph72%30.09 "Hg10 mi
10:50 pm59 °FClear.5 mph77%30.12 "Hg10 mi
11:20 pm59 °FClear.6 mph77%30.12 "Hg10 mi
11:50 pm57 °FClear.2 mph82%30.15 "Hg10 mi
Weather by CustomWeather, © 2022

See weather overview